loading
DOY 205 | 2024-07-23T01:36:29Z
Showing default

LCS 1, 1361

Orbit data source: Space-Track

LCS 1, 1361 is an American payload satellite that was launched on Thu, 06 May 1965 UTC via a Titan IIIA launch vehicle from the Air Force Eastern Test Range (AFETR). Payloads include a variety of satellites, spacecraft, and rockets equipped with specific instruments for various scientific and technological missions. These include communications satellites like Starlink; space stations such as the ISS; scientific satellites like the Hubble; Earth observation satellites from companies like Planet Labs, Umbra, and HawkEye 360; GPS; miniature CubeSats for education and research; and military/defense satellites.

Loading next visibility...
Loading greatness...
LCS 1 details
NORAD ID1361
COSPAR ID
1965-034C
Orbit
Active
Last TLE update13 hours ago
Origin
Flag of USAFSSD/MITLL (US)
ManufacturerROHR/MITLL
BusLCS
MotorUnknown
Mass34 kg wet, 34 kg dry
Launch date (UTC)
1965-05-06 (59 years ago)
Launch vehicle
Titan IIIA
Launch site
Air Force Eastern Test Range (AFETR)
Object type
Payload
Rocket body
Debris
Radar Cross Section0.79 m², Medium (>0.1 m² and < 1m²)
Predictive object data (real-time)
Latitude28.55583°
Longitude-52.03094°
Altitude2,789.645 km
Speed6.597 km/s
Apparent Right ascension04h 32m 40s
Apparent Declination1° 23' 39"
Sunlit
Object is in daylight
Predictive observer data (real-time)
Local Sidereal Time14:41:10
Azimuth321.41° NNW
Elevation-41.467°
Doppler factor1
Orbital elements
Apogee2,796.886 km
Perigee2,784.451 km
Semi-major axis9,168.806 km
Eccentricity0.0006781
Inclination32.1459°
RAAN26.3473°
Arg. of periapsis170.7808°
True anomaly189.26888°
Mean anomaly189.2814°
Mean motion2.47215 °/min
BSTAR-0.00057807
Period145.62 mins
Definitive object data (Epoch: 2024-07-22T13:03:45.604Z)
Latitude-0.00004°
Longitude-110.36829°
Altitude2,792.992 km
Speed6.593 km/s
True Right ascension01h 45m 23s
True Declination0° 00' 00"
Sunlit
Object was in daylight at TLE epoch
TLE from 13 hours ago
0 LCS 1
1 01361U 65034C   24204.54427783  .00000004  00000-0 -57807-3 0  9996
2 01361  32.1459  26.3473 0006781 170.7808 189.2814  9.89305642141099
Epoch: 2024-07-22T13:03Z
No data available
Other satellites on launch #34 in the year 1965 (1965-05-06 UTC)

LCS 1 Visibility forecast

Observer location: 39.9160978°, -105.1181434

LCS 1 is not visible in the next 10 days
Span
Click to sort rows by Start time (UTC) header in descending order
Start Az.
Max El. time (UTC)
Max El. Az.
Max El.
End time (UTC)
End Az.